Wind_Gust
24 28 26 20 19 21 22 21 21 20 22 24 25 25 24 24 24 25 24 24 26 26 26 27 26 26 27 26 25 25 24 24 24 23 20 20 21 21 20 20 21 21 22 22 23 24 25 25 26 26 26 25 23 24 23 21 20 20 20 19 21 21 22 23 19 22 22 20 21 21 20 20 21 21 22 23 23 22 22 19 18 22 22 22 19
31 27 27 27 21 22 24 22 21 20 23 25 25 25 26 26 24 25 26 27 26 26 27 26 27 26 26 26 26 25 24 24 23 22 20 20 20 20 20 20 21 21 22 23 23 25 26 25 25 26 26 25 24 24 22 21 19 19 19 19 19 19 18 18 19 20 20 17 21 21 20 20 21 22 23 24 24 22 20 19 18 20 21 19 21
28 26 26 29 23 23 23 23 22 21 21 22 24 26 25 24 24 25 26 25 26 26 25 26 26 26 26 25 26 26 25 24 24 23 22 21 21 22 21 20 21 22 23 23 24 25 25 24 25 26 25 24 24 23 22 21 20 19 18 18 18 18 16 17 17 19 19 19 20 21 21 23 21 20 23 23 23 22 21 20 19 18 24 20 20
28 26 25 27 24 22 24 24 22 23 23 23 24 26 25 26 26 26 25 24 24 25 26 25 24 25 25 25 26 26 25 25 24 23 23 21 21 22 22 22 23 23 23 23 24 24 24 25 25 25 24 24 23 23 22 22 21 19 18 18 17 16 15 14 15 16 16 16 14 10 18 23 23 22 23 23 23 22 21 21 22 21 21 21 22
27 26 26 27 28 24 23 25 24 24 23 23 24 26 27 26 26 25 25 24 25 25 25 24 24 24 24 24 25 26 25 24 22 23 23 21 20 21 22 24 23 23 24 24 24 24 24 24 23 23 23 23 23 22 21 21 21 19 18 16 16 15 15 14 14 15 15 15 12 9 19 20 22 20 20 22 23 22 21 21 20 21 22 22 22
25 25 26 27 26 28 23 24 24 25 24 23 25 26 25 25 26 25 25 25 24 24 25 24 24 23 23 23 25 25 25 24 23 22 22 20 17 17 22 23 22 24 24 23 24 24 23 23 23 22 22 23 22 21 20 19 18 18 17 15 15 15 14 13 13 15 14 14 10 19 19 18 20 22 19 21 21 20 20 20 21 21 21 21 22
25 23 25 26 24 26 22 23 24 24 23 25 26 26 26 25 25 25 24 23 23 23 23 23 23 23 23 23 24 23 23 24 24 22 20 18 18 18 19 21 23 24 23 23 23 22 22 22 21 21 21 21 20 19 18 17 13 15 15 15 14 14 14 13 14 14 13 10 17 17 19 20 18 21 18 18 19 19 19 20 20 21 20 20 20
24 23 24 25 24 27 23 22 24 22 24 25 26 26 25 24 25 24 23 23 22 21 22 22 22 22 22 22 21 21 22 23 24 23 19 18 18 18 19 21 21 20 22 21 21 20 21 21 20 20 21 20 19 18 16 15 13 11 14 14 14 13 13 13 14 14 11 17 16 17 17 18 18 19 16 17 18 17 18 18 18 18 19 19 17
25 24 23 24 25 26 22 21 21 23 25 24 25 25 24 25 23 23 23 23 22 22 22 21 22 21 21 21 21 21 23 24 24 22 18 18 20 18 18 18 19 19 18 18 19 18 19 20 20 20 20 19 18 16 14 13 11 11 12 14 14 13 13 13 13 12 12 16 15 17 16 17 15 17 14 15 17 17 15 13 15 17 17 17 17
23 23 22 24 27 25 23 21 21 22 23 24 24 25 24 23 23 23 22 23 22 19 19 20 20 20 20 20 20 22 23 23 23 22 20 19 17 17 18 20 20 20 20 19 19 18 18 18 18 19 19 17 15 13 11 10 9 10 12 14 15 14 13 13 12 10 15 15 17 16 16 10 19 18 16 13 13 16 17 17 16 16 16 19 19
24 24 22 24 28 22 21 21 22 23 23 25 25 25 24 23 24 23 22 22 21 19 17 17 19 19 19 21 23 22 22 22 22 22 21 18 18 17 18 18 19 19 18 19 19 19 18 18 18 18 16 14 12 10 9 9 9 9 12 14 16 15 14 12 10 16 15 17 17 17 16 10 17 17 14 13 16 17 16 16 16 17 17 17 17
23 23 21 23 24 21 21 21 21 22 24 26 27 25 23 23 23 22 21 20 21 20 17 16 18 19 21 21 21 21 21 22 22 22 22 20 19 18 17 18 18 19 18 18 18 18 18 18 18 17 14 12 10 10 9 10 10 10 13 15 15 15 15 12 13 15 15 17 16 15 17 17 19 21 15 15 15 15 15 14 14 16 16 16 16
23 24 21 23 25 19 20 20 21 22 22 24 23 24 23 22 22 21 19 19 18 18 18 15 17 18 19 22 22 21 21 20 20 21 22 19 18 17 17 18 18 18 18 17 18 19 18 17 16 16 14 12 10 9 10 11 12 14 16 16 15 16 14 12 15 16 16 16 16 16 16 15 18 15 15 14 15 16 15 14 13 14 15 15 14
21 22 22 23 23 21 18 18 18 20 21 22 21 21 21 21 21 18 17 17 16 16 14 14 14 16 17 18 18 18 18 20 21 22 21 18 16 16 16 17 17 18 18 17 18 18 17 16 16 15 14 13 11 10 10 12 14 15 17 17 16 16 15 10 10 16 16 16 14 15 15 16 18 13 15 15 16 16 16 17 16 16 14 15 14
25 22 21 21 23 24 20 17 17 18 19 20 20 19 19 18 18 18 18 18 17 15 14 13 11 14 16 16 16 16 17 18 20 21 20 18 16 15 15 16 18 18 18 16 16 17 17 16 14 13 13 12 10 10 11 12 14 15 16 16 17 16 13 16 15 15 16 16 15 15 16 16 13 10 16 15 15 15 15 16 16 16 17 17 15
23 23 21 21 22 22 23 20 17 18 19 19 19 19 18 19 19 19 18 17 16 15 15 15 15 15 15 16 16 16 17 17 17 17 18 17 16 16 16 17 18 18 17 16 16 16 16 14 13 13 13 12 11 10 10 11 13 14 15 15 15 14 12 10 15 15 15 15 15 13 14 17 11 13 14 15 16 15 15 15 17 17 17 17 16
22 23 21 21 21 22 23 23 20 20 18 17 18 18 19 19 18 18 17 17 17 17 17 16 17 17 17 17 17 17 17 17 16 16 17 17 17 16 17 19 18 18 17 16 15 15 15 15 13 13 12 12 11 10 10 9 13 13 13 14 15 15 13 10 16 14 14 14 14 13 14 17 14 12 15 15 15 15 15 15 17 17 17 17 17
22 23 24 23 21 19 22 22 24 23 23 21 18 18 18 19 18 18 18 17 17 16 16 15 16 16 17 16 16 17 17 17 15 15 15 13 13 15 16 17 18 18 16 16 15 15 15 14 13 13 12 11 10 10 10 9 9 11 12 12 14 14 14 9 14 14 15 12 14 13 14 11 12 12 14 15 15 15 15 15 16 16 15 17 17
22 23 23 24 22 21 22 23 21 22 23 21 21 23 19 18 18 18 18 17 16 15 16 15 18 17 18 17 17 19 17 19 17 16 15 13 13 16 17 16 15 17 17 16 16 15 14 14 13 12 11 10 10 9 9 8 8 9 12 12 13 14 14 10 14 14 14 13 12 13 16 10 8 11 14 14 14 15 14 15 16 15 16 17 16
22 23 25 22 22 23 21 22 22 21 19 20 21 22 21 19 18 18 18 16 16 16 16 16 16 17 17 15 15 19 18 19 18 19 15 12 13 14 16 15 15 15 16 16 16 15 13 13 11 10 10 9 8 9 8 8 8 9 11 12 13 14 15 11 13 13 13 13 12 14 12 8 11 12 13 13 14 14 14 14 15 15 16 15 16
20 22 23 23 22 23 22 22 20 20 20 21 21 21 22 21 18 19 18 15 16 18 17 17 15 15 17 15 12 16 16 18 17 19 17 17 12 14 15 15 15 14 14 15 16 14 12 11 10 10 10 8 7 8 8 8 8 9 11 12 14 14 12 12 12 12 12 14 12 17 10 9 11 12 12 13 14 14 13 12 14 15 15 15 15
22 21 21 23 25 24 22 22 22 21 20 20 20 20 20 18 19 19 20 20 17 16 18 18 15 17 16 17 17 15 15 16 16 14 18 20 19 14 15 15 15 15 14 14 13 12 11 10 10 10 11 9 5 9 8 8 8 9 13 14 15 11 11 12 11 12 12 13 12 14 8 10 12 12 13 13 13 13 13 13 14 14 14 14 14
24 23 23 23 23 23 21 21 21 22 21 20 19 19 18 17 18 18 19 16 17 18 17 18 17 18 17 17 14 14 15 14 15 16 16 15 19 16 16 16 15 16 14 13 12 12 11 9 9 9 10 8 6 6 7 9 12 10 14 16 13 12 12 11 11 11 12 13 14 10 8 9 11 12 12 12 12 12 13 13 14 13 13 13 14
25 24 23 22 21 22 22 21 23 23 22 20 19 20 17 16 18 19 18 18 19 17 17 17 16 17 18 17 16 16 16 15 16 19 17 19 19 14 16 17 17 14 13 12 11 10 9 9 9 7 6 6 7 7 8 8 11 13 14 12 13 13 12 11 11 11 12 13 16 11 9 10 11 13 12 11 12 13 13 13 14 15 13 12 13
22 22 23 20 20 20 21 20 22 23 21 20 17 17 16 17 17 18 17 16 16 17 17 16 16 17 18 17 17 16 16 17 17 17 17 19 18 18 18 16 14 13 9 12 11 12 7 10 9 7 7 8 9 8 8 9 9 11 13 11 11 12 12 11 11 12 12 13 15 10 9 5 9 11 13 12 12 12 13 13 13 13 13 12 13
14 18 20 21 19 19 19 20 22 21 19 17 17 17 17 18 17 18 17 15 18 16 17 16 17 18 17 18 17 17 16 16 17 17 17 17 18 17 16 14 12 11 9 12 11 9 9 8 7 9 7 8 9 8 7 8 10 10 11 11 12 12 12 12 12 12 12 13 16 10 7 6 8 12 14 14 12 12 12 13 13 13 12 12 13
10 14 15 17 20 17 17 19 19 18 17 16 15 15 14 16 16 16 19 16 15 15 15 16 16 16 16 17 17 16 17 17 17 17 17 16 16 14 13 11 11 11 8 9 10 9 9 8 8 8 8 9 9 9 8 9 9 12 12 12 12 13 12 13 13 13 13 13 13 10 7 5 11 11 13 14 14 13 13 13 13 13 12 12 14
16 10 12 13 18 18 18 17 18 18 16 16 15 13 13 14 16 16 13 16 16 15 14 15 15 15 15 14 15 17 17 17 17 15 14 12 14 14 14 10 8 8 6 5 9 9 10 9 9 7 8 9 11 9 9 10 9 10 13 13 13 13 12 13 13 12 13 13 16 13 6 5 10 11 12 14 15 14 13 12 13 13 13 12 13
15 9 11 15 19 19 17 18 15 17 15 17 16 14 14 15 16 15 14 15 16 16 16 15 14 15 15 14 13 16 14 14 15 16 13 12 13 13 12 9 8 7 6 6 7 9 9 11 10 7 7 8 8 9 9 9 8 9 12 14 14 14 13 13 13 13 12 13 13 15 8 8 11 10 12 13 14 15 14 14 13 13 14 13 13
23 14 11 13 15 17 15 19 17 16 15 16 15 15 15 15 14 15 16 16 16 17 15 15 14 16 13 12 13 13 13 16 15 13 11 12 13 12 11 9 8 7 7 7 7 9 10 12 10 7 9 9 10 9 8 9 9 8 9 12 12 13 12 13 13 14 13 13 12 17 9 8 10 8 10 10 12 14 14 14 14 14 14 14 14
28 23 20 14 15 15 16 17 18 17 15 13 13 13 13 13 14 15 14 16 16 16 15 15 14 15 13 12 12 12 12 12 14 12 11 14 12 12 12 12 9 8 7 7 9 10 10 10 8 8 8 9 10 9 9 9 9 9 8 10 10 10 11 10 12 12 13 12 13 13 15 8 7 7 7 8 9 11 13 13 14 15 14 14 14
19 26 21 16 18 18 17 18 18 18 18 14 13 13 13 13 14 14 14 16 16 15 14 14 14 13 12 13 13 13 12 13 13 12 11 14 13 12 12 10 9 8 8 8 10 10 10 10 8 9 9 10 11 10 9 10 11 11 9 10 9 10 10 10 11 12 11 11 11 11 11 12 8 7 8 7 7 11 11 13 14 14 14 14 14
10 13 7 15 19 18 20 18 17 17 17 16 15 13 13 14 14 13 15 16 14 14 15 16 14 12 14 14 13 15 12 14 13 13 11 12 12 12 10 10 10 10 10 10 10 9 10 9 9 9 10 12 11 11 11 12 12 11 10 10 9 10 11 11 11 12 11 12 12 11 10 10 13 7 8 6 7 10 9 10 13 13 13 14 13
10 10 15 15 14 14 16 17 16 17 15 15 16 16 14 15 14 14 15 14 14 16 14 14 16 16 14 14 15 15 15 13 15 13 12 12 11 11 10 10 10 10 10 10 11 9 10 9 8 7 10 11 12 11 11 13 12 12 12 11 11 10 10 12 11 13 13 11 14 13 13 11 9 14 13 8 9 11 9 7 9 11 12 13 12
10 14 19 18 16 17 17 15 16 16 15 16 17 16 15 16 16 15 15 15 15 15 15 14 14 14 14 14 14 15 13 12 13 14 13 12 11 10 11 11 11 10 10 9 10 9 9 9 7 9 10 13 12 12 13 13 12 13 12 11 11 11 10 11 11 12 12 14 14 13 9 8 6 10 11 13 8 10 9 8 10 9 10 11 11
12 13 16 20 20 18 18 16 16 17 17 17 16 16 15 14 14 13 15 16 15 15 15 14 12 12 12 14 14 14 13 12 11 13 13 11 11 11 10 10 11 11 11 11 11 11 10 9 8 7 10 12 11 12 12 13 13 13 12 12 11 10 11 10 10 10 12 13 14 8 9 9 10 8 9 10 11 13 10 9 8 7 7 8 9
14 15 17 18 19 18 18 18 18 17 17 17 17 14 15 15 14 15 15 15 15 16 16 12 13 13 12 14 14 14 11 11 12 12 13 11 10 10 10 11 10 11 12 12 12 11 11 10 9 9 9 12 12 12 12 13 14 14 13 12 11 11 10 9 9 9 11 14 10 11 17 16 14 11 8 8 11 13 12 9 8 6 4 4 8
14 15 17 19 19 18 18 19 18 19 17 20 18 17 15 16 15 13 14 15 15 15 14 13 13 14 14 14 14 14 14 11 11 11 12 10 10 11 11 11 11 12 13 13 13 11 11 11 12 10 10 12 12 12 13 13 14 14 14 14 12 11 10 9 9 9 10 11 13 13 14 9 9 11 11 9 9 11 13 14 12 10 10 9 7
15 14 17 18 17 18 17 19 20 20 20 18 17 15 15 13 13 13 14 14 13 15 13 13 14 15 14 14 14 13 14 13 13 12 12 12 12 12 12 11 11 12 13 14 13 11 11 11 12 12 11 10 12 12 14 14 15 15 15 15 14 12 12 11 10 11 10 13 15 15 12 7 8 10 10 11 11 11 10 10 10 12 16 14 13
15 14 16 19 17 16 16 19 20 21 19 18 17 17 16 16 15 13 13 14 13 15 14 14 14 15 16 16 15 13 14 14 14 14 12 12 12 12 12 12 10 12 13 14 12 13 13 12 12 13 14 13 12 14 15 17 17 17 16 15 14 14 14 13 13 13 13 14 14 12 13 10 10 12 14 10 9 10 11 10 11 12 13 16 15
16 18 16 18 18 19 19 19 21 21 20 19 19 19 19 16 14 15 16 16 16 15 15 14 15 16 16 16 15 13 13 13 14 14 13 12 13 12 13 12 11 12 12 12 10 11 11 11 12 13 16 16 13 13 14 16 19 18 17 17 16 15 15 14 13 11 10 11 13 15 12 11 12 12 14 12 13 11 11 11 11 11 12 11 13
17 19 17 21 18 19 15 17 17 13 12 17 19 19 18 20 19 19 17 17 17 17 16 15 15 14 13 13 13 13 13 13 14 13 12 12 13 14 13 14 13 13 11 12 11 12 11 12 13 14 12 15 13 15 15 16 13 15 16 14 17 15 14 14 13 13 12 12 13 12 10 10 13 13 13 12 14 13 12 9 10 11 11 10 10
18 19 16 19 18 17 14 17 20 18 18 17 20 21 20 19 18 18 20 19 15 15 15 15 13 14 12 12 12 12 13 13 14 13 12 12 13 14 14 14 13 12 13 13 12 11 11 12 13 14 15 12 12 13 13 9 13 13 12 13 12 11 11 14 13 12 11 11 11 12 14 15 17 15 11 11 13 12 13 11 11 12 11 11 11
17 18 18 22 18 16 17 19 19 18 20 22 20 20 18 16 13 16 15 15 17 15 12 12 12 12 13 12 12 12 13 14 14 14 12 12 12 13 13 13 13 13 13 13 12 13 12 12 12 13 15 15 14 12 8 7 13 18 14 6 9 7 12 12 12 13 11 11 10 11 13 14 15 15 14 13 12 11 12 11 12 11 12 12 12
17 18 18 18 16 19 23 24 23 22 21 21 21 20 17 15 16 16 15 15 14 14 13 13 12 13 13 13 13 12 13 13 13 13 12 13 12 13 13 12 12 12 12 13 13 13 14 14 14 15 14 15 17 14 10 7 10 12 12 15 12 11 7 15 13 13 10 10 10 11 13 13 13 12 12 13 13 13 13 13 12 12 12 12 13
17 17 16 17 16 19 22 23 22 19 20 20 21 21 19 19 21 20 20 16 16 16 17 18 16 16 16 13 12 13 13 13 13 13 13 12 13 13 12 13 12 12 11 11 11 12 12 13 14 14 15 12 14 18 15 8 10 9 9 12 12 11 17 16 11 12 10 11 11 13 12 12 12 13 15 14 12 12 12 12 12 12 12 12 13
14 16 19 20 18 21 21 20 20 20 19 19 20 20 20 21 23 22 21 22 21 17 14 13 14 14 14 13 13 11 12 13 12 12 11 12 12 12 11 10 11 10 9 9 11 11 12 13 13 13 14 13 12 15 16 15 12 9 6 7 8 7 13 20 13 19 14 8 12 15 14 16 16 15 15 13 12 12 12 12 13 13 13 14 15
15 16 20 21 22 20 19 19 18 19 19 20 20 21 22 20 19 17 19 20 19 18 16 15 12 14 15 15 14 12 11 12 13 12 12 12 12 12 10 9 10 11 11 12 12 11 10 10 12 12 12 13 13 11 12 14 14 14 7 8 9 9 10 7 13 14 19 17 16 13 16 17 16 15 12 12 13 12 12 13 14 15 13 11 11
14 16 20 22 21 20 18 18 20 18 19 21 20 20 19 20 19 20 19 16 16 18 16 16 16 15 14 13 12 12 11 9 10 11 10 11 11 11 11 11 10 10 11 11 11 11 11 11 14 13 13 13 12 9 10 12 12 13 13 11 12 12 11 9 11 12 21 21 17 14 15 15 16 15 12 11 11 12 12 12 13 14 14 10 11
13 13 14 20 21 17 17 16 18 19 20 20 18 18 16 16 18 15 16 18 15 16 17 16 15 13 13 11 10 10 10 10 9 9 10 11 10 11 11 11 10 10 10 9 10 11 11 11 13 12 11 12 10 10 11 9 9 10 12 12 13 13 14 14 13 16 17 12 19 17 19 17 15 11 9 11 13 13 13 14 14 15 15 12 13
12 14 13 19 20 18 17 17 19 17 17 15 14 15 13 13 15 15 16 16 15 17 19 17 13 12 14 12 11 10 9 10 10 9 9 10 10 10 10 11 9 9 9 10 9 9 10 10 10 10 11 12 12 11 10 8 9 11 11 12 13 16 14 18 19 19 17 18 20 17 16 17 19 14 10 9 10 12 14 14 17 18 16 14 15
Wind_Speed
15 17 15 17 15 16 15 15 15 17 17 17 19 20 19 17 17 18 18 18 19 20 20 20 21 21 21 21 20 20 19 18 18 17 15 16 17 17 16 16 17 17 17 18 18 19 19 19 20 19 19 18 17 17 16 15 15 15 15 15 17 17 17 14 11 18 16 15 16 15 15 14 14 14 16 17 17 17 15 14 12 10 11 13 15
20 16 15 17 16 17 16 16 16 17 19 19 19 18 18 19 19 18 19 19 19 20 20 20 21 21 21 20 20 20 19 19 19 16 14 15 16 16 15 16 17 17 17 18 18 19 19 19 20 19 18 19 18 17 16 15 14 15 15 15 15 15 15 14 15 16 15 14 16 15 15 15 17 15 16 18 17 16 15 14 13 10 9 15 16
17 16 15 18 18 18 17 17 17 16 16 19 20 21 21 19 19 21 19 19 19 19 20 20 20 21 21 20 21 20 19 19 18 17 16 16 16 16 16 16 16 17 18 19 19 20 19 19 19 18 18 18 18 17 17 15 14 14 14 14 13 12 13 12 14 15 15 15 16 16 16 18 15 16 18 18 18 16 16 15 14 14 10 15 16
18 15 14 18 19 17 17 17 17 16 16 17 18 19 19 18 17 17 19 19 19 19 20 20 19 20 19 20 21 21 20 20 19 18 18 16 17 17 16 17 18 18 18 19 19 19 19 19 19 18 18 18 17 17 16 15 14 14 14 13 12 11 11 11 12 13 13 13 9 8 9 12 14 15 16 17 17 17 15 16 17 16 16 17 17
17 14 14 16 17 17 18 18 18 18 18 17 19 20 22 21 20 18 18 18 18 19 20 18 18 19 19 19 20 20 20 19 18 18 17 17 17 17 18 18 18 18 18 19 19 19 19 18 18 17 17 17 17 17 16 16 15 13 13 13 12 11 10 11 11 11 12 11 7 7 9 11 11 15 16 17 17 17 16 16 16 16 17 18 18
15 14 14 15 16 18 18 18 19 19 18 18 21 21 19 19 20 21 20 20 19 19 19 19 19 19 18 19 20 19 20 19 19 18 17 14 11 14 18 18 18 19 19 18 19 18 18 17 17 17 17 16 16 16 15 15 14 14 12 12 11 10 10 10 11 10 11 10 7 9 9 9 10 11 15 16 16 15 16 16 16 15 16 17 17
16 12 13 14 13 17 18 19 19 20 18 19 18 20 20 20 19 18 18 19 19 19 18 18 18 18 18 18 19 19 19 19 19 18 15 13 12 14 16 17 18 19 18 18 18 17 17 17 16 16 15 15 15 14 13 11 10 12 12 11 11 10 10 10 10 9 8 7 7 7 8 9 9 9 14 14 14 15 15 15 15 15 15 15 15
13 11 13 14 13 18 18 18 18 18 19 20 20 20 19 20 20 18 18 18 18 17 17 17 18 18 18 18 17 17 18 19 19 18 14 13 13 14 15 17 17 17 18 17 17 16 16 16 16 15 15 14 13 13 12 11 9 9 11 11 11 10 9 9 9 8 6 7 7 7 7 8 9 8 13 13 13 13 13 13 13 14 13 14 13
14 13 12 13 14 21 18 17 17 19 20 20 20 20 19 18 18 19 19 18 18 18 17 17 17 17 17 17 17 17 18 19 19 17 14 13 13 13 14 14 15 15 14 15 15 13 15 15 15 15 14 14 13 12 11 10 9 9 10 11 11 11 9 9 8 7 6 6 7 7 8 7 7 8 10 11 12 12 10 9 12 13 13 13 13
13 13 13 13 15 20 18 17 17 18 18 19 20 20 20 18 18 17 18 18 18 15 15 16 16 17 17 17 16 18 19 19 18 18 16 15 13 13 13 15 16 16 16 16 15 14 14 14 14 14 14 13 11 10 8 7 7 8 10 12 11 11 10 8 7 5 6 7 8 8 7 6 9 8 9 8 10 12 13 14 12 12 12 14 15
15 13 12 13 18 18 17 17 18 19 18 20 20 20 19 19 18 17 17 18 16 14 13 14 15 15 15 17 18 18 18 18 18 18 17 15 14 13 15 14 14 15 15 15 15 14 13 13 12 13 12 10 8 7 7 7 6 7 10 12 12 11 10 8 6 6 6 8 8 8 9 6 8 8 10 10 12 13 13 12 12 13 13 13 13
14 13 12 13 18 17 17 17 18 18 20 21 21 20 19 18 18 17 17 16 16 14 13 13 14 15 17 16 17 16 17 18 18 18 17 16 14 13 13 14 14 14 14 14 14 14 14 14 13 11 10 9 7 7 7 7 7 8 10 12 11 11 10 6 4 6 7 8 8 7 8 8 10 10 11 12 10 11 11 11 11 12 12 12 12
14 13 12 14 16 16 16 16 17 18 18 19 19 20 19 18 18 17 15 15 15 14 13 13 14 15 16 18 17 17 17 16 17 17 18 16 14 14 13 13 14 13 13 13 14 15 14 13 12 10 9 9 8 7 7 8 9 11 13 13 12 11 10 7 6 7 7 8 7 7 7 7 9 12 11 10 12 11 10 9 10 11 11 12 11
13 12 12 13 12 16 14 15 15 16 17 18 17 17 17 17 17 15 14 14 13 13 11 11 12 14 14 15 15 15 15 16 17 17 17 15 13 13 14 14 14 13 13 14 14 14 13 13 11 10 8 8 8 7 8 9 11 13 14 14 13 12 10 5 6 7 7 8 6 7 7 6 9 11 12 11 12 12 12 12 12 11 11 11 11
15 14 13 12 13 15 16 13 14 15 16 17 16 16 16 15 15 14 15 14 13 12 11 9 9 12 13 13 13 13 15 15 16 17 16 14 12 12 12 14 14 13 13 13 13 13 13 12 11 9 8 7 8 8 8 9 11 12 13 13 13 12 9 6 5 6 7 7 6 7 7 7 8 9 12 11 11 11 12 12 11 12 13 13 12
15 15 13 12 13 13 13 15 14 15 15 16 16 15 15 15 16 15 15 14 13 12 11 10 10 11 11 12 12 12 14 14 14 14 15 14 13 13 13 14 15 14 12 12 13 13 12 11 10 9 8 7 7 8 8 9 11 11 12 12 12 10 7 5 5 6 6 6 6 6 6 8 7 9 11 12 12 11 11 12 13 13 13 13 12
14 15 13 13 13 13 12 13 14 16 15 14 15 15 15 15 15 15 14 13 13 13 13 12 12 11 13 13 13 13 13 12 12 13 14 14 14 13 14 15 15 14 13 12 12 11 11 10 10 9 8 7 8 8 8 8 10 10 11 11 11 9 8 4 6 5 5 6 5 4 5 7 10 9 11 12 12 11 11 12 12 13 13 13 13
15 15 14 14 13 11 12 12 14 13 14 14 14 14 14 15 14 14 14 14 13 13 13 13 13 13 14 13 13 13 14 13 11 12 12 11 11 12 13 14 15 15 13 13 12 12 11 11 10 9 8 8 8 8 8 8 8 9 10 10 11 10 8 4 5 5 6 6 5 5 5 9 8 9 11 11 11 11 11 11 11 11 12 13 12
13 15 14 15 13 12 12 12 13 12 13 11 11 13 15 14 14 15 14 14 13 12 13 13 14 14 14 14 14 13 13 15 12 13 12 11 11 14 14 12 13 14 14 13 13 12 11 10 9 8 7 7 8 7 7 7 6 8 10 10 11 10 8 4 5 5 6 5 4 5 6 8 6 9 11 10 11 11 11 11 10 11 13 13 13
13 14 14 13 13 13 12 11 12 11 11 11 12 13 14 14 14 14 14 12 12 12 13 13 13 14 14 13 13 13 13 12 13 11 11 9 10 11 13 12 13 12 13 13 12 12 10 9 8 7 6 6 6 7 6 7 6 8 9 10 10 11 6 3 5 5 4 5 4 5 8 7 9 9 9 10 10 10 11 10 10 10 11 11 12
10 13 13 12 13 14 14 11 12 12 12 12 11 12 12 15 12 14 13 11 12 13 13 13 12 13 13 12 10 8 8 9 9 10 13 8 10 11 12 12 12 11 11 12 12 11 10 8 8 8 6 4 5 7 6 6 6 7 9 10 11 6 4 4 4 4 4 5 4 7 8 8 9 10 9 10 11 10 10 10 10 10 11 11 11
11 11 12 13 13 13 13 13 11 12 11 10 9 9 10 12 11 11 11 12 12 12 11 10 10 9 12 10 8 7 6 7 8 9 8 11 11 12 12 12 12 12 11 11 10 9 9 8 8 8 6 4 3 3 4 6 6 8 10 11 7 4 4 4 4 4 5 5 5 8 7 8 9 9 9 10 10 10 9 10 11 10 9 10 11
11 11 11 13 12 12 12 12 13 12 12 10 9 9 10 8 10 9 9 11 11 10 9 10 8 9 8 8 7 6 7 6 6 7 8 11 11 12 13 12 12 13 11 10 9 9 8 7 7 7 6 3 2 2 2 4 5 8 10 7 4 4 4 4 3 4 4 5 6 8 7 7 9 9 9 9 9 9 9 10 10 10 9 10 10
12 10 11 10 11 11 12 12 13 14 12 10 9 10 8 8 7 9 8 9 9 7 9 8 7 8 8 7 5 7 8 7 11 13 12 9 10 11 13 13 13 10 10 8 9 7 7 7 6 5 4 3 2 2 3 3 4 5 7 4 4 5 5 4 3 4 4 5 6 9 7 8 9 10 9 8 9 9 9 9 10 11 9 9 10
7 8 9 10 11 11 11 12 13 13 12 10 9 8 8 8 8 8 8 7 7 9 8 8 8 9 10 8 9 8 8 8 8 8 7 8 8 8 8 7 6 6 5 5 4 4 3 4 3 3 2 3 3 3 3 3 3 5 5 4 4 5 5 4 3 4 4 5 7 8 7 4 8 9 10 9 9 9 9 9 9 9 10 9 9
4 7 10 10 11 11 11 9 12 12 11 9 9 8 9 8 8 8 6 7 9 8 8 6 7 8 8 9 8 9 8 7 8 8 8 8 8 7 7 6 5 5 4 4 4 3 3 2 2 3 3 2 2 2 2 3 4 4 4 4 5 5 4 4 4 4 4 5 7 8 5 5 7 10 11 10 9 9 9 9 9 9 8 9 10
3 3 7 8 9 10 10 11 10 9 10 9 7 7 7 8 7 7 8 7 7 7 7 6 7 8 8 8 8 8 8 8 8 8 8 7 7 6 5 4 5 4 2 3 3 3 3 2 1 2 3 4 3 3 3 3 3 5 4 5 5 5 4 4 4 4 5 5 8 8 6 4 9 9 10 10 10 9 9 10 9 9 8 9 10
4 4 7 6 9 11 11 11 10 9 9 9 8 6 6 6 8 8 6 7 7 7 7 5 6 6 7 6 6 7 7 8 8 8 7 6 5 5 5 4 3 2 1 0 1 2 4 3 1 1 3 3 4 3 3 3 3 4 6 6 5 5 5 5 5 5 5 5 7 8 5 4 9 8 9 11 11 10 9 9 9 9 9 9 10
9 5 6 8 11 10 11 11 10 10 8 9 8 6 7 8 8 7 7 8 7 7 7 6 6 6 7 7 6 7 6 7 8 8 6 5 6 6 6 4 2 2 1 1 2 3 3 3 3 2 1 3 2 3 2 3 2 3 4 5 6 5 5 5 5 5 5 4 5 8 7 7 9 9 10 10 11 11 10 10 9 10 9 10 10
14 9 7 7 8 10 10 11 8 9 8 9 7 7 7 7 5 6 8 7 7 7 8 6 5 6 6 5 6 6 6 7 7 6 4 6 6 5 4 3 3 2 1 2 3 3 4 4 4 1 0 3 3 2 2 3 2 2 2 4 4 5 5 5 5 5 5 4 4 7 7 7 8 7 9 8 9 10 10 10 10 10 10 10 10
10 14 11 8 9 9 8 11 11 10 7 7 7 7 7 4 5 4 7 7 7 7 7 7 6 6 5 6 5 6 6 6 7 6 5 7 6 5 5 5 3 2 2 2 3 4 5 4 3 2 0 3 3 3 2 3 3 2 2 2 3 3 4 3 4 4 5 4 4 5 7 6 6 5 6 6 7 8 9 10 10 10 10 10 10
5 9 9 9 11 11 10 11 11 10 9 8 7 7 4 5 6 5 6 6 7 5 6 6 6 6 5 6 5 6 4 6 6 6 5 6 6 5 5 4 3 3 2 3 4 4 4 4 3 2 2 4 4 4 3 3 4 3 2 2 2 2 3 3 3 4 4 4 4 4 4 5 4 4 6 6 6 7 7 9 10 9 9 9 9
2 6 2 10 12 11 11 11 10 10 10 9 8 7 5 5 6 5 7 7 5 6 6 7 4 4 5 7 6 7 5 6 6 6 5 5 5 5 4 3 3 4 4 4 5 4 4 3 3 2 3 5 5 4 4 5 5 4 3 3 1 2 2 3 3 4 4 5 4 4 2 4 4 1 5 5 6 8 6 8 9 9 9 9 8
2 4 7 7 7 7 8 8 9 9 9 8 8 7 7 7 6 7 7 7 6 6 6 6 7 6 5 6 6 6 6 5 7 7 5 5 5 5 4 4 3 4 4 4 4 4 4 3 2 2 4 4 4 4 4 5 5 4 4 3 3 3 3 4 4 5 5 4 4 4 3 2 4 6 5 7 7 9 7 5 7 8 8 9 8
5 6 11 11 10 10 8 7 9 9 9 9 9 8 7 8 7 7 7 8 7 7 6 6 6 5 5 5 6 6 5 5 6 6 5 5 4 4 4 4 4 4 3 3 4 4 3 3 1 3 4 4 4 5 5 5 5 5 4 3 4 3 3 4 4 4 4 5 3 3 3 2 0 2 3 5 6 8 7 6 7 6 7 8 7
6 7 9 12 12 11 11 9 10 11 9 9 9 8 8 7 7 7 6 7 7 7 7 6 5 5 5 5 6 6 5 5 5 5 4 4 4 3 4 4 5 4 4 5 4 4 4 3 3 2 4 4 4 5 5 5 5 5 4 4 4 3 4 4 4 3 4 4 2 2 3 2 3 2 1 2 4 6 7 6 6 6 5 6 6
8 9 10 11 12 12 11 11 11 11 11 11 10 9 8 8 7 7 6 8 7 7 7 6 5 6 5 5 6 5 4 4 4 5 4 4 4 4 4 4 4 4 5 5 5 4 4 4 4 3 3 4 4 5 5 5 5 6 5 5 4 4 3 3 3 3 4 4 3 4 8 5 2 3 3 3 3 5 7 6 6 5 4 3 6
9 9 11 11 11 11 10 11 11 11 10 11 10 9 8 8 7 6 8 7 8 6 6 6 6 6 5 5 6 6 6 5 5 5 4 4 5 5 5 5 5 5 5 6 5 5 4 4 5 4 4 5 5 5 6 5 6 6 6 5 5 4 4 3 3 3 3 4 5 5 3 1 4 5 5 3 2 4 5 8 9 8 7 6 6
8 9 10 10 9 10 9 11 12 12 11 10 10 9 8 7 6 7 7 6 6 6 6 6 6 6 6 6 6 5 6 6 6 6 5 5 5 5 5 5 5 4 5 5 6 5 5 5 5 5 4 4 5 5 6 6 6 6 7 7 6 6 5 4 3 3 4 5 7 4 3 4 3 4 4 2 4 4 4 3 3 4 7 11 10
8 8 10 11 10 10 9 11 11 11 10 9 8 8 8 7 7 6 7 7 7 7 7 6 6 7 7 7 6 6 6 6 6 6 5 5 5 5 6 6 5 5 5 5 5 5 6 6 6 6 7 6 5 6 7 7 8 8 8 7 7 7 7 6 6 7 6 7 6 4 4 4 3 5 3 4 4 4 4 4 3 4 5 8 10
9 9 10 12 10 10 10 12 11 11 9 9 8 8 8 7 7 7 7 8 7 7 7 6 7 6 8 7 7 6 6 6 6 6 5 6 5 5 6 6 5 5 5 5 5 5 6 6 5 6 7 7 6 6 6 7 9 9 7 7 8 8 8 7 6 4 4 5 5 5 4 4 5 2 4 4 4 4 5 5 5 4 3 3 6
9 11 10 12 11 12 10 11 7 7 7 8 8 9 9 9 8 9 8 8 8 8 8 7 7 6 7 6 5 5 6 6 6 6 5 6 6 6 6 6 6 6 5 6 5 6 6 6 6 6 5 6 5 7 7 8 5 6 7 6 7 7 7 7 7 6 6 5 5 4 3 4 6 5 5 5 5 6 5 4 4 4 4 3 2
11 12 10 12 11 11 8 10 11 9 10 10 10 10 10 10 9 8 10 8 7 7 7 7 6 6 6 6 5 6 6 6 6 6 5 5 5 6 6 6 6 6 6 6 6 6 5 6 6 6 6 5 5 6 6 3 4 5 5 5 4 4 4 6 6 6 5 5 4 5 6 7 8 7 3 5 6 6 4 3 4 4 4 3 3
10 11 10 14 10 9 10 11 11 10 10 11 10 12 11 9 7 7 8 7 7 7 6 6 6 6 6 5 5 6 6 6 6 6 4 4 5 6 6 6 6 6 6 6 6 6 6 5 5 6 6 6 5 5 2 2 4 7 5 0 3 2 5 4 5 5 4 5 4 5 5 6 7 7 6 6 5 4 5 4 5 5 4 4 4
10 10 10 11 8 12 14 12 11 13 12 11 12 10 8 8 7 7 7 6 6 6 6 6 5 6 6 6 6 6 6 5 6 5 4 4 5 5 5 5 5 5 5 6 6 6 6 6 6 6 7 5 7 6 4 2 4 3 4 5 4 4 2 7 6 5 4 4 5 6 5 6 6 6 5 5 5 5 5 5 5 5 5 5 6
10 9 10 10 10 11 13 14 11 9 10 12 12 10 9 9 9 9 9 7 7 8 8 9 7 7 7 6 6 6 6 6 6 6 5 4 5 5 5 5 5 5 4 4 4 5 5 5 6 5 6 6 5 7 6 3 4 3 3 4 3 2 6 7 5 5 4 5 5 6 6 6 6 6 7 6 5 5 5 5 6 5 5 5 6
9 9 11 11 11 12 12 12 10 9 11 12 12 9 11 10 12 12 11 10 10 8 7 6 6 6 6 6 6 5 6 6 6 5 4 5 5 5 5 4 4 4 3 3 4 4 4 5 5 5 5 5 5 5 7 6 5 3 1 2 3 1 5 7 4 8 6 2 6 7 6 8 8 8 7 6 6 5 5 5 6 5 5 6 7
9 9 9 12 14 13 12 11 10 10 10 11 11 11 11 11 11 10 9 10 10 9 8 7 6 6 7 7 6 5 5 5 6 5 5 5 5 5 4 3 4 4 4 5 5 4 4 4 5 5 5 4 5 4 5 5 5 5 2 2 2 2 4 1 7 6 8 8 7 6 8 9 8 7 6 6 6 6 6 6 7 6 5 3 4
8 9 12 11 12 12 10 11 11 10 11 13 11 12 10 10 10 10 10 8 8 8 7 7 7 7 8 6 5 5 5 3 4 4 4 5 4 5 4 4 4 4 4 4 4 4 5 5 5 5 5 5 4 3 3 4 4 4 5 3 4 4 4 3 4 5 8 9 8 7 8 7 7 7 5 4 5 5 6 5 6 6 5 4 4
7 7 8 11 12 10 11 11 12 11 12 13 10 10 10 9 10 9 9 9 7 8 8 8 7 7 7 5 4 4 4 3 3 3 4 4 4 4 4 4 4 4 3 3 4 5 4 5 6 6 5 5 4 4 3 2 3 3 4 5 4 5 4 5 5 6 7 6 9 9 9 9 6 4 4 5 7 6 6 6 7 6 6 4 6
5 8 6 11 12 11 10 12 12 10 10 7 8 10 7 7 7 8 8 9 8 10 10 9 7 6 6 5 4 4 3 4 3 3 3 4 4 4 4 4 3 3 3 3 3 3 4 4 4 4 5 6 5 4 4 3 2 4 5 4 5 5 5 6 7 7 6 7 9 7 7 8 8 6 4 4 5 6 6 7 8 8 8 5 6
Wind_Direction
154 146 146 145 147 138 130 123 117 114 115 114 116 117 115 109 106 107 111 114 118 120 123 125 126 129 131 132 133 133 134 132 131 133 137 133 130 129 127 126 124 124 121 119 115 115 116 114 112 111 108 104 102 98 94 92 90 90 90 90 93 100 103 110 90 71 85 79 78 78 89 87 84 85 87 86 82 79 77 78 76 75 72 80 79
151 144 148 146 142 135 131 126 119 116 121 119 116 115 115 115 116 114 115 119 121 123 125 126 130 131 132 132 132 134 132 133 133 133 133 129 128 128 127 126 124 122 122 120 119 117 119 115 115 113 111 107 103 101 97 95 93 93 95 93 95 102 109 74 64 76 79 88 87 86 81 76 85 90 88 85 78 74 75 74 76 79 83 81 76
139 143 145 144 139 135 132 126 121 118 118 120 120 120 121 118 117 119 119 121 123 125 128 130 130 133 133 133 133 133 134 134 133 130 127 126 127 127 127 128 128 127 125 124 120 122 120 118 115 116 112 108 104 102 99 96 96 96 93 93 95 95 75 71 71 76 81 83 86 89 86 83 71 79 84 82 84 80 74 71 70 76 77 75 74
142 140 141 141 136 133 130 126 123 124 124 122 121 120 118 117 116 115 118 124 125 128 130 130 131 132 133 134 135 136 136 135 134 133 131 133 134 134 135 133 128 123 122 125 126 124 120 121 120 118 115 111 108 105 103 100 97 94 96 97 96 91 79 73 75 77 83 80 80 96 92 92 93 82 82 83 82 82 77 71 74 73 75 74 72
139 138 137 140 138 135 131 128 127 130 131 128 127 126 126 124 124 121 120 123 127 129 131 129 131 132 134 135 136 136 136 135 133 132 132 134 136 136 134 131 127 120 124 127 126 125 125 123 121 120 117 115 112 109 106 104 98 92 92 97 98 93 83 74 71 74 76 79 68 98 90 87 85 84 85 87 84 80 81 80 77 76 77 75 72
138 136 138 139 139 138 132 130 130 131 132 130 130 130 125 124 127 127 128 130 131 131 132 131 133 134 134 135 136 137 137 135 134 132 131 133 131 126 132 129 127 124 129 129 128 127 126 124 124 123 121 119 116 114 115 113 103 92 93 97 96 91 83 76 71 68 70 74 79 91 91 93 87 86 82 82 82 80 79 78 75 72 71 73 75
134 133 137 138 137 138 133 131 132 134 133 132 131 131 130 130 129 128 129 130 130 132 133 134 135 135 136 137 138 139 138 137 132 129 129 126 121 123 125 125 127 126 132 131 130 128 126 125 124 123 121 118 118 120 121 119 110 103 103 102 102 97 94 84 76 70 71 91 84 94 93 89 89 88 83 80 79 77 75 73 71 70 69 67 67
134 134 139 138 138 137 133 132 134 134 135 136 135 133 131 132 132 130 129 129 129 130 133 135 136 138 137 140 142 143 142 135 129 129 128 125 123 121 126 128 126 131 133 131 128 125 126 125 125 121 121 120 119 120 124 125 122 117 110 113 108 106 101 89 78 70 70 89 87 84 87 94 101 90 70 72 74 74 74 72 73 74 74 72 76
137 136 136 136 136 137 134 133 134 136 138 139 136 132 129 129 130 131 131 130 131 133 135 137 139 140 142 145 147 143 134 131 128 127 122 122 124 126 127 124 124 129 131 129 126 127 126 126 126 122 121 118 118 119 120 124 128 125 117 119 118 115 109 91 84 99 97 96 95 90 91 92 97 102 89 82 76 74 74 87 93 79 74 75 75
138 138 139 138 140 139 136 134 136 138 139 138 134 131 129 129 128 129 131 133 133 134 136 139 142 145 147 146 140 137 134 130 128 127 125 125 122 114 114 120 128 132 132 130 127 126 125 128 124 124 121 119 117 118 121 127 136 135 128 126 126 123 112 100 94 88 99 105 96 86 75 93 104 90 91 89 86 79 77 65 65 71 77 79 76
141 139 140 138 141 139 138 137 139 140 141 138 132 130 130 131 130 129 132 134 134 135 136 137 140 142 140 137 135 136 133 131 129 127 125 117 116 119 122 125 127 129 133 132 130 128 127 122 118 118 115 112 114 115 120 130 138 138 132 135 133 128 118 113 138 118 112 107 102 105 102 91 95 102 108 105 95 91 83 79 79 79 79 78 78
140 140 139 141 140 142 141 141 140 141 140 134 130 128 130 132 132 132 132 134 135 134 131 128 133 137 134 130 134 133 132 129 127 124 119 118 120 122 121 125 127 130 132 132 128 124 122 120 116 113 114 115 116 113 117 129 135 134 133 137 134 127 123 130 135 121 121 114 103 111 116 110 96 97 103 103 95 87 84 86 86 83 81 79 79
140 141 138 141 146 144 142 139 140 140 135 130 128 130 133 135 135 135 132 133 134 135 134 133 135 134 133 134 135 132 127 124 123 121 123 126 129 127 126 127 128 130 128 126 126 124 122 119 114 117 120 119 113 110 117 127 130 128 132 132 131 125 124 140 129 128 118 111 111 113 103 92 94 99 101 105 101 90 88 92 91 88 86 82 83
139 141 142 144 147 145 139 138 139 136 132 129 131 135 135 136 135 131 127 129 135 136 136 135 136 135 136 136 134 129 127 125 124 126 127 129 132 128 129 130 128 125 126 128 127 121 118 115 117 119 116 110 104 103 119 128 129 127 126 127 129 128 128 138 122 121 119 116 113 112 107 103 104 117 119 111 95 96 97 91 86 89 90 91 88
142 144 144 145 145 148 139 138 137 133 131 131 133 134 133 133 132 130 132 138 138 138 138 134 132 134 137 136 132 129 129 128 130 132 132 132 133 131 132 127 126 122 120 125 124 120 116 114 111 109 97 92 93 101 122 130 132 125 126 129 130 134 152 135 138 126 122 119 115 120 107 102 111 107 103 107 105 97 92 97 98 97 95 93 87
141 143 144 146 146 145 147 140 135 134 132 132 132 132 133 134 135 136 140 139 136 135 134 135 130 133 137 133 125 124 128 132 135 136 136 136 138 137 132 134 129 119 118 120 120 112 107 106 104 99 93 89 87 99 120 129 132 127 128 129 132 137 145 137 131 129 125 122 114 103 105 105 102 97 106 99 96 97 99 91 89 90 94 92 91
142 142 144 147 147 149 148 148 140 134 131 128 128 130 133 134 135 136 137 136 135 134 137 139 141 142 141 137 130 133 132 135 137 137 140 139 142 143 143 137 126 121 123 119 115 113 113 108 104 100 95 88 82 81 105 121 134 130 127 129 132 135 135 149 127 128 125 118 116 109 103 109 104 111 104 101 100 101 98 99 96 90 86 89 90
148 148 147 149 149 149 151 148 144 142 137 131 127 130 132 133 133 136 139 139 138 136 134 137 143 144 141 135 134 137 142 137 140 135 135 129 134 136 132 128 123 122 119 116 117 117 109 102 100 98 94 87 82 83 88 104 125 134 128 128 135 135 135 147 125 122 119 122 111 102 95 97 112 111 108 106 109 105 99 97 96 99 98 96 95
152 152 150 152 150 152 152 151 150 147 144 143 139 133 133 133 138 141 142 141 138 133 130 136 140 142 139 139 137 132 139 134 138 130 123 120 131 131 126 126 124 122 116 107 104 102 98 97 95 92 89 88 86 86 88 95 96 133 133 133 134 134 135 153 126 122 120 119 112 111 100 123 120 105 103 105 99 97 94 89 91 97 99 97 95
156 156 155 153 152 152 153 153 152 149 146 145 143 142 139 138 139 139 138 137 133 130 133 136 138 139 138 133 136 140 130 121 118 116 96 111 130 127 124 123 118 118 113 110 102 98 100 95 92 91 86 89 95 96 98 104 114 132 141 135 133 137 153 136 125 119 117 102 108 101 106 109 105 108 104 97 98 98 99 101 100 95 95 99 97
159 159 158 155 155 155 154 154 154 148 145 144 143 143 142 140 137 138 131 130 132 135 134 136 141 140 138 126 114 118 118 120 122 122 133 149 124 120 117 119 118 118 112 106 102 105 102 99 96 97 99 98 95 95 99 109 111 133 143 141 142 160 142 134 131 121 110 119 116 102 121 128 119 107 104 98 94 96 94 93 93 87 86 88 91
161 160 162 159 159 158 156 152 151 149 146 148 147 143 141 143 142 143 144 140 141 141 138 135 130 128 119 122 128 125 126 127 125 131 132 132 124 116 123 124 120 116 109 101 98 98 95 92 95 99 105 111 112 121 113 107 114 141 154 147 162 145 143 139 135 124 115 110 110 113 138 115 111 114 111 108 109 106 102 99 87 85 84 87 89
164 163 163 163 160 155 154 150 151 150 150 148 148 140 142 140 141 142 138 144 141 132 128 131 129 127 128 123 121 122 126 125 132 129 123 120 120 120 120 121 118 116 112 104 100 96 91 91 93 100 107 121 132 110 129 134 131 142 153 166 160 150 141 141 138 127 120 108 99 123 118 117 113 102 99 101 100 100 98 91 92 95 91 87 88
164 166 160 159 157 156 155 154 156 157 153 151 150 149 144 140 143 146 145 146 138 130 130 128 127 130 126 124 125 131 129 127 123 122 124 127 123 117 116 115 114 110 112 113 106 88 96 95 96 117 134 145 138 146 139 136 131 149 164 166 163 143 149 153 148 131 120 122 102 127 128 134 119 108 108 108 104 99 96 94 92 91 94 94 85
166 162 161 158 159 158 157 158 159 158 156 149 146 139 140 144 146 142 139 138 137 141 137 133 136 135 133 134 135 133 135 130 132 134 135 130 131 131 131 128 122 115 114 109 115 112 115 119 121 111 99 133 145 145 151 134 128 152 161 152 148 151 154 156 145 142 133 118 114 138 139 133 113 114 114 105 98 99 97 92 90 97 101 97 92
152 173 169 161 162 161 158 153 162 159 154 146 145 135 135 142 143 144 136 142 144 143 141 136 138 139 139 138 137 135 132 130 134 136 134 135 134 137 135 130 127 123 129 121 111 107 106 94 91 104 104 105 133 150 152 146 143 145 151 150 151 155 164 157 151 150 137 123 128 147 145 135 114 118 116 112 109 108 111 107 108 105 102 103 98
314 209 182 166 160 158 159 155 158 151 148 141 121 129 137 143 143 142 145 143 145 142 144 140 141 141 140 139 141 138 136 141 141 139 136 135 134 135 128 119 119 117 107 123 118 104 83 76 44 94 113 121 135 144 154 152 148 144 139 151 156 161 162 160 158 159 145 133 132 149 151 125 126 131 116 118 118 117 115 114 116 114 113 110 104
310 228 183 169 164 160 157 154 150 145 141 129 121 121 125 130 141 139 136 141 143 146 145 140 139 139 141 141 145 146 145 143 144 140 138 136 128 122 124 118 108 100 103 52 132 103 100 101 84 17 97 113 131 145 150 145 142 147 150 157 163 162 164 162 163 159 149 139 139 152 133 117 113 120 117 119 119 123 125 124 121 118 111 107 106
188 223 185 178 176 162 155 151 147 146 131 129 125 124 129 139 149 143 143 152 149 151 148 144 148 148 147 141 159 149 142 141 146 143 143 125 129 133 132 127 112 109 114 91 66 95 114 134 97 16 27 103 111 124 139 124 139 150 161 159 166 161 163 165 164 162 155 139 140 141 130 130 125 132 125 126 129 131 134 133 127 122 120 116 109
181 176 187 181 169 157 152 147 137 141 129 122 126 134 140 143 132 144 150 149 155 154 153 151 149 152 139 146 160 152 144 146 141 138 118 126 133 133 126 130 120 105 125 86 101 129 126 92 80 53 323 96 99 88 114 123 123 143 158 160 163 165 161 170 166 166 152 146 128 135 127 141 139 145 131 132 136 134 136 136 133 130 129 126 123
173 167 175 165 153 157 146 149 139 136 126 111 124 132 142 119 114 161 144 151 155 156 155 154 154 149 141 148 154 147 137 133 136 133 121 132 137 140 137 132 109 92 54 96 101 80 73 80 105 149 33 89 83 76 73 86 86 102 112 146 151 159 161 162 166 157 156 140 139 144 141 137 139 135 119 130 134 133 137 138 134 135 134 131 129
206 190 173 156 155 161 148 145 137 133 133 123 127 128 125 122 130 161 143 154 159 152 152 153 153 143 156 144 155 154 136 136 144 132 134 138 140 137 134 133 122 120 118 115 89 84 93 97 111 133 79 82 82 71 67 74 68 60 87 98 122 144 140 142 158 149 143 140 141 139 142 131 109 106 111 96 119 138 142 135 136 139 135 132 132
182 37 32 176 167 152 145 138 129 131 131 132 134 132 123 127 144 146 152 161 158 157 151 148 147 162 160 158 163 159 150 140 146 139 140 139 135 133 129 128 135 137 131 115 106 104 107 113 118 107 83 83 82 83 78 72 72 71 65 79 91 102 124 153 139 151 158 154 141 119 94 123 157 77 139 120 101 133 140 143 141 144 138 136 136
95 94 114 155 138 135 125 137 128 122 124 129 135 141 144 142 148 154 161 164 165 161 159 155 162 170 165 164 164 162 162 142 148 146 147 140 138 138 140 141 141 139 129 124 119 123 124 128 108 75 63 66 68 69 80 83 80 82 86 94 101 117 146 154 167 171 172 116 85 107 125 95 154 177 151 101 115 133 140 144 145 140 141 140 138
118 121 132 135 127 115 122 123 130 128 127 137 142 142 147 143 148 157 165 168 165 165 165 158 160 157 161 164 167 163 160 153 153 152 147 144 145 147 147 145 144 140 128 121 123 120 133 134 73 89 87 84 81 74 80 87 90 85 82 91 109 120 136 143 161 174 145 95 112 128 107 108 144 162 135 126 117 127 133 140 147 146 144 145 137
133 121 135 135 132 134 128 125 128 134 138 141 137 143 144 142 149 159 165 166 169 168 163 164 146 151 159 159 166 163 161 155 147 146 145 154 150 146 143 145 147 143 139 136 137 134 136 127 98 92 109 101 99 89 87 93 90 86 82 86 92 112 133 150 162 161 106 109 137 102 86 51 38 54 135 125 110 114 142 146 129 130 138 131 133
134 136 133 130 129 132 131 133 131 134 138 138 138 140 144 145 152 162 164 167 169 172 165 158 153 159 164 158 163 159 155 152 146 155 149 153 148 151 143 150 155 152 148 144 142 142 143 133 114 94 106 121 114 111 100 100 94 86 85 83 89 105 111 117 129 123 114 108 95 66 44 3 50 63 34 59 96 112 107 114 131 132 159 156 137
131 142 142 145 145 137 135 135 130 137 136 141 144 142 145 147 153 156 165 168 173 171 163 168 163 162 164 161 160 148 174 167 148 150 157 146 150 146 148 154 154 154 150 147 140 142 140 140 128 120 134 146 144 131 118 107 94 87 80 76 79 84 95 113 134 149 147 104 71 59 149 119 64 58 47 23 107 102 107 91 88 78 71 109 121
127 134 138 136 144 137 133 135 136 139 140 142 141 139 143 146 151 157 163 168 168 165 157 166 165 165 170 169 165 162 162 163 159 160 159 157 150 146 149 152 152 151 148 144 144 147 144 138 137 127 133 144 141 135 124 112 106 94 82 77 76 76 81 94 107 117 104 96 102 131 142 75 72 92 89 83 72 86 89 95 88 84 67 51 64
134 133 146 143 142 135 137 140 143 143 140 140 140 143 148 153 153 151 157 164 161 162 164 168 169 171 172 172 173 170 167 164 165 164 159 154 150 150 151 157 155 149 148 149 153 158 154 144 135 138 133 129 133 130 130 120 104 90 82 77 75 77 75 76 73 74 88 92 105 124 111 106 111 85 88 98 95 89 87 71 77 80 82 66 58
145 151 155 147 145 139 146 150 146 140 140 144 148 150 155 153 154 163 163 165 165 162 167 170 176 176 172 170 170 169 167 162 166 165 160 154 149 152 157 159 162 157 153 154 157 155 151 145 134 140 140 134 130 135 137 134 117 98 89 84 77 66 68 77 83 93 88 92 99 100 95 101 74 84 124 124 123 109 96 93 90 89 81 89 86
155 161 167 155 151 141 143 144 120 117 134 155 153 157 163 169 167 171 164 165 163 167 169 175 176 172 172 170 167 167 168 166 166 169 164 163 154 159 166 165 167 168 156 140 143 146 147 144 143 134 145 143 140 152 149 150 143 139 129 105 86 86 83 70 59 67 70 79 92 105 112 108 110 115 125 125 113 103 100 92 97 100 107 107 89
155 163 167 155 151 139 137 141 143 148 155 159 157 162 174 176 174 166 164 158 167 169 168 168 167 168 169 168 166 169 169 167 169 169 164 164 162 171 170 167 175 159 154 152 148 152 156 157 163 149 145 147 142 166 154 250 145 144 135 142 130 125 95 80 60 54 74 80 90 85 90 101 105 105 101 105 107 103 108 101 101 103 104 102 91
153 163 161 156 148 139 153 149 152 155 166 168 164 169 177 173 162 158 157 153 158 161 156 153 157 164 163 163 167 168 170 167 167 166 164 157 173 174 167 171 167 166 160 157 157 161 166 162 166 161 157 151 158 170 163 169 158 157 155 217 129 165 134 90 76 48 59 86 87 100 99 102 111 119 119 115 120 127 129 137 112 93 85 89 93
156 161 165 156 150 154 163 158 161 163 169 167 164 169 159 150 136 136 138 136 141 153 154 160 167 170 156 165 164 164 163 163 167 168 157 158 177 174 171 169 168 167 168 163 170 173 179 177 175 172 178 172 164 168 167 189 162 10 134 140 144 185 108 121 105 60 38 72 98 94 102 106 105 101 113 102 91 96 94 88 84 88 89 96 96
156 164 169 169 152 156 165 161 158 159 162 161 157 161 161 151 146 148 153 154 156 163 172 172 173 175 170 152 150 156 157 158 166 167 167 164 175 179 175 169 167 165 177 167 162 168 186 185 183 187 187 189 172 170 168 181 161 73 30 1 13 351 153 150 167 110 65 34 80 84 92 103 95 90 86 96 98 94 100 99 93 86 93 102 103
154 164 172 172 163 161 167 159 155 157 160 157 156 166 162 165 164 166 165 164 162 169 170 170 171 164 151 149 147 154 160 162 163 169 165 172 171 173 171 176 170 172 164 170 171 178 183 193 186 199 199 182 184 186 179 166 153 156 82 11 356 18 145 160 149 127 125 105 69 78 72 73 80 88 90 87 90 84 80 92 96 100 105 104 97
154 167 177 175 173 162 160 157 154 157 161 158 166 172 168 171 173 170 166 165 169 164 166 161 156 152 147 146 150 151 159 160 160 168 166 165 167 164 167 173 179 173 179 187 186 185 188 185 202 211 211 197 195 200 183 172 185 170 164 150 110 133 148 12 157 164 137 126 103 85 77 75 69 70 77 83 82 84 85 87 96 100 103 76 86
169 182 188 178 173 154 155 159 154 156 161 161 175 178 172 169 171 166 159 163 162 156 153 150 147 148 141 145 148 144 149 143 151 149 154 155 160 162 165 169 173 169 186 185 192 187 196 185 192 198 206 201 207 214 194 188 208 168 167 148 151 146 151 148 164 165 146 143 137 122 107 89 76 60 63 58 75 87 91 91 92 94 98 73 74
185 192 194 172 163 150 152 154 155 159 163 163 171 174 171 166 166 162 149 148 147 147 151 149 149 150 136 138 135 140 142 140 133 134 141 150 153 159 168 164 161 164 181 176 168 175 187 190 193 203 198 202 203 210 214 207 208 173 189 146 149 149 152 148 170 160 144 147 143 135 134 136 116 62 51 65 83 89 96 99 102 107 110 80 78
200 199 199 172 158 142 151 157 157 159 159 134 149 164 170 160 157 150 139 137 142 146 151 153 149 145 137 140 147 140 142 136 135 126 127 133 134 145 147 144 143 143 153 153 166 176 168 173 169 180 193 210 208 201 205 206 197 182 189 171 191 182 170 178 175 173 153 134 134 133 140 130 123 104 50 54 73 86 98 101 108 113 111 90 86